Weather History for KCAV - February, 2013

Change the Weather History Date:

Monday, February 18, 2013

  Actual Average Record
Temperature  
Mean Temperature 22 °F -  
Max Temperature 35 °F 31 °F 67 °F (1981)
Min Temperature 8 °F 14 °F -13 °F (1993)
Degree Days  
Heating Degree Days 42    
Moisture  
Dew Point 20 °F    
Average Humidity 79    
Maximum Humidity 93    
Minimum Humidity 67    
Precipitation  
Precipitation 0.00 in - - ()
Sea Level Pressure  
Sea Level Pressure 29.67 in    
Wind  
Wind Speed 18 mph (WNW)    
Max Wind Speed 34 mph    
Max Gust Speed 44 mph    
Visibility 9 miles    
Events Rain , Snow    
Averages and records for this station are not official NWS values.
T = Trace of Precipitation, MM = Missing Value Source: NWS Daily Summary

Daily Weather History Graph

Daily Weather History Graph

Search for Another Location

Airport or City:

Trip Planner

Search our weather history database for the weather conditions in past years. The results will help you decide how hot, cold, wet, or windy it might be!

Date:

Astronomy

Feb. 18, 2013 Rise Set
Actual Time 7:07 AM CST 5:51 PM CST
Civil Twilight 6:38 AM CST 6:19 PM CST
Nautical Twilight 6:05 AM CST 6:52 PM CST
Astronomical Twilight 5:33 AM CST 7:25 PM CST
Moon 11:33 AM CST (2/18) 1:51 AM CST (2/18)
Length of Visible Light 11h 41m
Length of Day
10h 43m
First Quarter, 58% of the Moon is Illuminated
Feb 18
First Quarter
Feb 25
Full
Mar 4
Last Quarter
Mar 11
New
Mar 19
First Quarter

Hourly Weather History & Observations

Time (CST) Temp. Windchill Dew Point Humidity Pressure Visibility Wind Dir Wind Speed Gust Speed Precip Events Conditions
12:15 AM 33.8 °F 21.9 °F 26.6 °F 75% 29.59 in 10.0 mi SSE 21.9 mph - N/A   Clear
12:55 AM 33.8 °F 23.2 °F 26.6 °F 75% 29.58 in 10.0 mi South 17.3 mph 26.5 mph N/A   Clear
1:15 AM 33.8 °F 23.9 °F 26.6 °F 75% 29.58 in 10.0 mi South 15.0 mph 21.9 mph N/A   Clear
1:35 AM 33.8 °F 23.9 °F 26.6 °F 75% 29.58 in 10.0 mi South 15.0 mph - N/A   Clear
1:55 AM 33.8 °F 25.3 °F 26.6 °F 75% 29.58 in 10.0 mi South 11.5 mph 18.4 mph N/A   Clear
2:15 AM 33.8 °F 25.8 °F 26.6 °F 75% 29.58 in 10.0 mi South 10.4 mph - N/A   Clear
2:35 AM 32.0 °F 24.2 °F 26.6 °F 80% 29.58 in 10.0 mi South 9.2 mph - N/A   Clear
2:55 AM 32.0 °F 24.8 °F 26.6 °F 80% 29.58 in 10.0 mi South 8.1 mph - N/A   Clear
3:15 AM 32.0 °F 24.8 °F 26.6 °F 80% 29.57 in 10.0 mi South 8.1 mph - N/A   Clear
3:35 AM 32.0 °F 23.6 °F 26.6 °F 80% 29.57 in 10.0 mi South 10.4 mph - N/A   Clear
3:55 AM 32.0 °F 23.0 °F 26.6 °F 80% 29.56 in 10.0 mi South 11.5 mph - N/A   Clear
4:15 AM 30.2 °F 20.8 °F 26.6 °F 86% 29.54 in 10.0 mi SSE 11.5 mph - N/A   Clear
4:35 AM 30.2 °F 21.3 °F 26.6 °F 86% 29.54 in 10.0 mi South 10.4 mph - N/A   Clear
4:55 AM 30.2 °F 21.9 °F 26.6 °F 86% 29.55 in 10.0 mi South 9.2 mph - N/A   Clear
5:15 AM 28.4 °F 20.4 °F 24.8 °F 86% 29.55 in 10.0 mi South 8.1 mph - N/A   Clear
5:35 AM 28.4 °F 22.2 °F 24.8 °F 86% 29.56 in 10.0 mi SW 5.8 mph - N/A   Clear
5:55 AM 26.6 °F 20.0 °F 24.8 °F 93% 29.57 in 10.0 mi SW 5.8 mph - N/A   Clear
6:15 AM 26.6 °F 21.2 °F 24.8 °F 93% 29.57 in 10.0 mi SSW 4.6 mph - N/A   Clear
6:35 AM 28.4 °F - 24.8 °F 86% 29.56 in 10.0 mi Calm Calm - N/A   Clear
6:55 AM 28.4 °F 23.3 °F 24.8 °F 86% 29.55 in 10.0 mi WNW 4.6 mph - N/A   Clear
7:15 AM 28.4 °F 22.2 °F 24.8 °F 86% 29.56 in 10.0 mi NW 5.8 mph - N/A   Clear
7:35 AM 30.2 °F 21.9 °F 26.6 °F 86% 29.56 in 10.0 mi NW 9.2 mph - N/A   Clear
7:55 AM 30.2 °F 22.6 °F 28.4 °F 93% 29.57 in 10.0 mi NW 8.1 mph - N/A   Clear
8:15 AM 32.0 °F 24.2 °F 30.2 °F 93% 29.58 in 10.0 mi WNW 9.2 mph - N/A   Clear
8:35 AM 33.8 °F 26.4 °F 30.2 °F 87% 29.60 in 10.0 mi WNW 9.2 mph - N/A   Clear
8:55 AM 33.8 °F 24.8 °F 30.2 °F 87% 29.60 in 10.0 mi NW 12.7 mph - N/A   Clear
9:15 AM 35.6 °F 27.1 °F 32.0 °F 87% 29.60 in 10.0 mi NW 12.7 mph - N/A   Clear
9:35 AM 35.6 °F 27.5 °F 32.0 °F 87% 29.60 in 10.0 mi WNW 11.5 mph - N/A   Mostly Cloudy
9:55 AM 35.6 °F 26.6 °F 32.0 °F 87% 29.60 in 10.0 mi NW 13.8 mph - N/A   Overcast
10:15 AM 35.6 °F 25.9 °F 32.0 °F 87% 29.60 in 10.0 mi NW 16.1 mph - N/A   Overcast
10:35 AM 35.6 °F 26.2 °F 32.0 °F 87% 29.61 in 9.0 mi NW 15.0 mph - N/A   Overcast
10:55 AM 35.6 °F 25.5 °F 32.0 °F 87% 29.61 in 9.0 mi NW 17.3 mph - N/A   Overcast
11:15 AM 35.6 °F 25.9 °F 32.0 °F 87% 29.61 in 9.0 mi NW 16.1 mph - N/A   Overcast
11:35 AM 35.6 °F 24.2 °F 32.0 °F 87% 29.61 in 9.0 mi NW 21.9 mph - N/A   Overcast
11:55 AM 32.0 °F 18.1 °F 30.2 °F 93% 29.62 in 6.0 mi NNW 27.6 mph 34.5 mph N/A   Overcast
12:15 PM 30.2 °F 14.9 °F 28.4 °F 93% 29.62 in 7.0 mi NNW 31.1 mph - N/A   Overcast
12:35 PM 30.2 °F 16.8 °F 26.6 °F 86% 29.65 in 9.0 mi NW 23.0 mph 32.2 mph N/A   Overcast
12:55 PM 28.4 °F 13.0 °F 24.8 °F 86% 29.65 in 3.0 mi NW 28.8 mph 36.8 mph N/A Snow Light Snow
1:15 PM 28.4 °F 13.5 °F 24.8 °F 86% 29.66 in 5.0 mi NW 26.5 mph - N/A Snow Light Snow
1:35 PM 28.4 °F 13.0 °F 23.0 °F 80% 29.67 in 10.0 mi NW 28.8 mph - N/A Rain Light Freezing Rain
1:55 PM 28.4 °F 13.0 °F 21.2 °F 74% 29.68 in 9.0 mi NW 28.8 mph 36.8 mph N/A Rain Light Freezing Rain
2:15 PM 28.4 °F 13.5 °F 21.2 °F 74% 29.68 in 9.0 mi NW 26.5 mph 33.4 mph N/A   Overcast
2:35 PM 26.6 °F 10.0 °F 21.2 °F 80% 29.68 in 10.0 mi NW 31.1 mph - N/A   Overcast
2:55 PM 26.6 °F 9.6 °F 17.6 °F 69% 29.69 in 10.0 mi NW 33.4 mph 40.3 mph N/A   Overcast
3:15 PM 24.8 °F 7.1 °F 17.6 °F 74% 29.71 in 10.0 mi NW 33.4 mph 39.1 mph N/A   Overcast
3:35 PM 24.8 °F 7.9 °F 17.6 °F 74% 29.71 in 10.0 mi NW 29.9 mph 39.1 mph N/A   Overcast
3:55 PM 24.8 °F 7.3 °F 15.8 °F 69% 29.71 in 10.0 mi NW 32.2 mph 39.1 mph N/A   Mostly Cloudy
4:15 PM 23.0 °F 4.4 °F 15.8 °F 74% 29.71 in 10.0 mi NW 34.5 mph 42.6 mph N/A   Overcast
4:35 PM 23.0 °F 5.1 °F 14.0 °F 68% 29.72 in 10.0 mi NNW 31.1 mph 40.3 mph N/A   Overcast
4:55 PM 23.0 °F 6.0 °F 14.0 °F 68% 29.73 in 10.0 mi NW 27.6 mph 39.1 mph N/A Rain Light Freezing Rain
5:35 PM 21.2 °F 2.7 °F 12.2 °F 68% 29.74 in 10.0 mi NW 31.1 mph 40.3 mph N/A   Overcast
5:55 PM 21.2 °F 2.7 °F 12.2 °F 68% 29.75 in 10.0 mi NW 31.1 mph 36.8 mph N/A Rain Light Freezing Rain
6:15 PM 19.4 °F 0.2 °F 12.2 °F 74% 29.77 in 8.0 mi NW 31.1 mph 39.1 mph N/A Rain Light Freezing Rain
6:35 PM 17.6 °F -2.5 °F 8.6 °F 68% 29.78 in 10.0 mi NW 32.2 mph - N/A   Mostly Cloudy
6:55 PM 17.6 °F -1.6 °F 10.4 °F 73% 29.79 in 10.0 mi NW 28.8 mph - N/A   Mostly Cloudy
7:15 PM 15.8 °F -2.3 °F 8.6 °F 73% 29.80 in 10.0 mi NW 23.0 mph 34.5 mph N/A Rain Light Freezing Rain
7:35 PM 15.8 °F -4.1 °F 8.6 °F 73% 29.81 in 9.0 mi NW 28.8 mph 36.8 mph N/A Rain Light Freezing Rain
7:55 PM 15.8 °F -2.7 °F 6.8 °F 68% 29.81 in 10.0 mi NW 24.2 mph 33.4 mph N/A Rain Light Freezing Rain
8:15 PM 14.0 °F -6.2 °F 5.0 °F 67% 29.82 in 10.0 mi NW 27.6 mph 42.6 mph N/A   Mostly Cloudy
8:35 PM 14.0 °F -6.2 °F 5.0 °F 67% 29.83 in 10.0 mi NW 27.6 mph 35.7 mph N/A   Overcast
8:55 PM 14.0 °F -5.5 °F 6.8 °F 73% 29.83 in 9.0 mi NW 25.3 mph 32.2 mph N/A Rain Light Freezing Rain
9:15 PM 14.0 °F -7.7 °F 5.0 °F 67% 29.83 in 8.0 mi NW 33.4 mph - N/A Rain Light Freezing Rain
9:35 PM 12.2 °F -9.9 °F 3.2 °F 67% 29.84 in 10.0 mi NNW 32.2 mph 40.3 mph N/A Rain Light Freezing Rain
9:55 PM 12.2 °F -7.1 °F 3.2 °F 67% 29.85 in 10.0 mi NW 23.0 mph 35.7 mph N/A Rain Light Freezing Rain
10:15 PM 10.4 °F -10.7 °F 5.0 °F 79% 29.85 in 5.0 mi NW 26.5 mph 36.8 mph N/A Snow Light Snow
10:35 PM 10.4 °F -11.7 °F 1.4 °F 67% 29.85 in 10.0 mi NW 29.9 mph 43.7 mph N/A   Light Freezing Rain
10:55 PM 10.4 °F -10.3 °F 3.2 °F 73% 29.86 in 6.0 mi NW 25.3 mph 36.8 mph N/A Rain Light Freezing Rain
11:15 PM 10.4 °F -10.7 °F 3.2 °F 73% 29.86 in 8.0 mi NW 26.5 mph 35.7 mph N/A Rain Light Freezing Rain
11:35 PM 10.4 °F -9.9 °F 3.2 °F 73% 29.87 in 10.0 mi NW 24.2 mph 34.5 mph N/A   Light Freezing Rain
11:55 PM 8.6 °F -14.1 °F 1.4 °F 73% 29.88 in 7.0 mi NW 29.9 mph 35.7 mph N/A   Light Freezing Rain